Theta_e
313 313 315 313 313 301 308 310 305 307 314 310 306 306 307 306 303 301 309 308 310 315 315 316 318 318 319 321 324 328 334 332 333 332 332 332 332 333 335 335 336 341 342 344 342 343 347 346 347 348 350 350 355 360 361 366 368 367 367 367 365 366 366
313 316 315 315 314 312 309 305 309 315 316 313 308 300 305 302 298 302 306 302 303 306 302 314 316 316 317 323 321 324 332 330 332 330 332 333 332 332 338 337 341 343 342 342 342 343 344 345 346 347 352 350 359 360 363 366 368 365 367 368 364 364 364
313 315 315 312 314 315 309 309 317 307 303 301 307 303 296 300 297 300 303 305 306 308 309 311 312 313 316 322 325 324 329 326 327 330 332 334 335 335 341 338 342 343 344 342 344 341 341 345 351 349 351 351 357 361 365 368 367 368 368 366 365 364 364
311 313 311 304 307 312 313 314 310 314 309 305 303 304 305 304 298 299 300 303 301 308 309 310 312 315 317 319 319 323 322 333 329 328 327 331 337 339 341 337 337 338 344 343 345 347 345 346 348 349 354 355 356 361 366 369 371 371 368 365 365 362 361
312 304 309 305 308 305 306 306 306 309 309 312 310 309 305 302 300 301 300 300 305 315 315 314 315 317 317 318 320 326 325 327 332 334 331 333 338 339 339 337 339 337 339 341 341 347 354 346 348 350 349 351 354 362 364 369 368 369 367 367 365 363 361
305 307 312 311 310 311 308 306 304 307 307 304 302 303 310 308 304 299 301 298 306 314 316 321 322 324 322 323 323 323 325 331 334 338 335 338 342 341 345 339 336 336 346 343 342 343 353 356 349 354 352 357 357 363 367 369 371 370 367 366 364 365 363
305 310 312 314 313 312 312 310 306 309 309 309 305 296 304 307 306 307 305 301 306 317 319 319 321 326 326 326 323 326 329 331 334 337 333 342 343 340 341 343 342 346 347 349 351 350 351 352 351 358 357 356 358 367 368 370 370 370 368 366 366 363 360
310 311 315 315 314 312 309 311 312 309 306 308 307 306 308 305 306 302 303 300 306 315 323 323 323 325 327 330 328 332 331 331 340 345 347 343 340 344 343 350 348 347 347 357 350 358 359 353 361 356 363 365 362 366 367 370 369 370 368 366 359 356 361
303 306 309 309 312 310 307 308 310 312 311 310 310 310 311 304 305 305 303 297 303 317 321 323 325 326 328 327 330 331 330 331 337 343 342 342 341 340 341 341 346 344 345 347 346 356 354 357 360 359 361 367 368 368 370 370 369 369 364 365 359 358 360
294 294 296 300 304 305 307 310 310 311 310 309 307 303 307 299 307 307 304 304 311 315 320 319 323 325 328 330 329 332 335 336 337 337 338 336 336 343 343 349 346 344 349 359 348 352 353 357 360 362 364 369 369 368 368 371 366 369 364 362 365 362 359
300 303 307 312 312 310 306 306 308 309 311 310 310 309 307 302 307 305 309 309 309 312 313 317 322 324 324 326 329 330 332 336 338 340 338 334 334 349 348 351 350 358 361 355 355 359 357 354 359 365 366 366 367 368 368 367 367 365 362 359 357 358 361
308 309 309 311 311 307 308 308 309 309 309 310 309 306 305 316 306 301 312 315 308 309 314 315 320 321 326 327 329 330 333 336 338 337 332 334 331 350 357 355 353 355 359 359 360 360 358 359 361 365 364 366 367 367 366 366 362 358 354 356 349 346 345
308 309 309 311 310 309 309 309 309 308 309 309 308 308 309 308 305 302 312 315 312 312 314 315 320 322 324 328 331 334 334 338 339 337 335 332 332 342 348 354 357 357 357 360 360 357 358 359 360 360 363 364 360 358 354 357 353 352 352 349 347 346 345
309 310 310 310 309 309 309 309 310 310 309 308 308 308 310 309 309 310 310 315 310 313 314 316 320 324 324 328 334 333 333 336 338 336 334 333 340 339 339 351 356 357 358 359 360 357 355 355 358 359 356 359 357 355 353 350 348 350 352 349 348 345 345
307 309 310 311 310 309 307 309 310 311 312 309 309 308 309 311 310 310 310 311 312 317 321 320 320 324 329 330 327 326 329 337 336 338 339 341 339 334 332 354 354 357 359 359 359 357 357 355 356 358 357 358 359 354 351 350 349 348 349 349 350 348 348
304 308 308 308 309 309 308 308 310 310 311 311 310 307 310 309 308 309 309 309 310 317 322 321 324 322 326 325 327 330 332 335 336 336 338 338 340 338 335 351 356 356 356 357 357 357 358 359 359 360 361 361 360 356 354 352 353 353 351 349 349 349 350
302 308 309 308 307 306 303 304 311 312 314 317 317 314 324 321 320 311 307 309 320 321 323 319 323 326 325 327 327 330 332 338 337 337 339 339 338 337 334 345 354 354 355 356 357 356 358 359 359 359 361 360 358 358 356 356 356 353 350 349 349 352 355
303 306 309 309 305 296 300 318 317 318 316 315 314 317 321 324 320 314 320 319 324 324 323 319 319 324 326 327 333 332 332 331 332 334 339 339 338 337 335 341 354 356 356 356 356 357 358 358 358 361 361 359 358 358 358 357 355 354 352 351 353 354 356
302 307 307 302 296 298 313 321 322 323 320 321 317 321 325 325 323 323 320 321 324 324 322 324 324 326 329 329 329 330 332 334 332 335 336 341 341 338 336 338 353 356 356 357 356 356 357 357 359 359 359 358 358 358 358 356 357 356 356 355 354 353 354
307 304 303 293 296 311 317 318 322 324 323 320 320 318 325 325 324 324 324 324 324 323 322 323 329 326 328 327 332 333 339 335 336 333 338 340 340 339 335 330 346 356 356 355 355 356 358 358 358 358 356 357 356 357 358 357 357 358 356 355 353 353 352
300 302 301 301 311 310 314 316 317 318 315 317 316 313 319 324 327 326 326 328 328 324 325 327 327 329 327 330 332 334 335 338 335 333 338 340 339 337 337 337 337 354 356 355 354 357 356 357 358 357 357 357 356 356 356 356 357 357 356 353 352 351 351
307 301 300 300 300 298 307 316 321 322 323 323 324 320 317 325 326 327 327 327 328 328 325 324 326 329 326 323 329 335 335 332 328 333 340 342 344 344 342 344 344 348 354 354 354 354 354 354 355 359 360 358 358 356 355 356 356 355 355 354 354 353 352
304 302 299 298 298 303 314 317 320 322 324 324 324 317 312 323 326 327 329 327 329 328 326 327 327 323 320 321 328 335 334 331 330 330 334 338 340 344 344 342 345 346 351 354 353 354 354 352 355 358 359 358 356 355 354 353 353 353 354 354 353 353 353
304 303 300 299 305 304 313 318 320 321 325 325 320 305 307 320 327 329 329 327 326 328 329 328 327 324 321 323 329 333 332 331 332 334 335 336 337 341 343 342 343 347 357 355 352 352 352 355 358 358 357 356 356 354 352 353 353 353 354 355 357 357 356
306 305 303 305 307 317 319 319 320 323 324 320 308 302 315 326 328 329 330 328 327 328 326 327 325 332 333 337 340 338 335 333 332 333 337 338 338 340 342 342 346 348 353 351 351 354 356 358 357 357 356 356 355 355 354 352 351 353 355 356 357 358 358
303 303 301 302 308 316 323 322 323 324 317 306 304 320 329 328 327 331 331 330 330 329 327 327 332 333 334 334 339 338 335 334 338 338 337 338 337 336 339 344 347 349 348 351 354 355 358 357 356 356 356 356 355 354 352 351 353 356 357 357 357 357 357
307 304 300 298 294 313 323 322 321 322 314 316 323 328 330 331 329 329 330 332 332 329 326 329 331 333 334 334 331 330 334 336 337 338 341 342 338 337 342 347 348 346 348 350 352 355 355 355 356 356 356 354 353 353 351 352 354 356 355 354 356 357 358
302 300 298 298 312 318 324 322 314 320 323 328 327 328 327 332 331 330 331 332 334 335 333 331 332 333 335 332 330 332 334 336 337 340 341 343 344 344 345 346 346 348 349 350 354 357 354 357 359 357 357 355 354 352 353 356 354 354 355 355 357 355 355
309 306 309 317 322 323 324 324 325 326 328 330 330 329 329 329 330 334 331 331 333 334 334 334 334 334 334 332 329 331 335 336 337 338 342 343 343 343 342 345 350 349 348 349 351 352 353 355 357 360 357 355 355 353 356 359 358 356 356 355 354 353 352
318 319 319 321 322 324 324 326 327 326 327 328 328 327 328 331 332 333 331 334 334 335 336 335 335 336 337 331 335 335 337 340 342 344 343 343 343 343 342 346 351 356 356 354 352 350 351 353 355 360 357 355 356 356 356 359 358 358 355 354 354 353 349
307 303 319 319 320 322 323 325 328 329 329 328 330 331 332 333 335 334 334 335 335 335 338 338 337 337 337 342 341 342 343 342 341 339 338 340 341 344 346 351 354 355 352 350 350 350 349 351 354 354 355 355 356 358 359 354 354 357 356 355 354 352 351
310 311 317 320 322 323 326 326 325 326 328 328 329 329 332 335 336 336 338 337 334 337 336 337 340 336 338 338 340 338 338 339 343 343 341 342 348 352 354 354 353 351 351 350 349 348 350 351 354 352 352 352 354 353 351 351 354 355 356 352 348 347 343
315 317 318 320 321 323 324 325 327 327 327 328 328 330 332 333 334 338 339 339 336 338 338 338 338 338 337 338 339 339 340 345 342 344 345 350 354 355 353 352 352 353 352 349 350 349 350 351 351 352 350 349 351 351 352 355 357 353 350 349 348 344 341
308 310 315 317 312 313 319 322 324 325 328 329 329 330 330 332 334 336 337 339 341 341 341 341 338 341 337 338 341 337 339 342 346 349 350 354 354 355 353 352 352 354 355 354 351 352 353 353 351 353 353 355 353 350 354 356 357 357 357 352 351 344 343
307 313 317 320 319 319 321 323 327 328 328 329 330 328 330 331 335 336 338 337 338 340 342 342 342 341 343 340 342 339 337 336 344 349 355 353 352 349 348 347 350 351 352 354 354 354 354 355 354 353 354 352 356 356 359 358 356 357 355 352 348 351 353
318 319 319 320 319 317 320 324 327 329 330 329 330 329 331 332 335 337 338 339 337 337 340 341 344 344 344 344 344 336 335 336 337 336 339 344 345 346 343 337 335 343 353 354 353 354 353 353 352 352 350 352 357 353 357 357 359 357 354 360 353 349 345
317 323 323 323 323 324 325 327 328 329 331 331 330 331 331 332 335 338 338 339 339 337 339 340 345 347 347 344 342 339 337 334 335 337 337 336 342 339 339 339 336 335 336 349 355 354 353 351 350 349 350 350 352 351 357 356 356 355 355 353 349 350 351
Wind_Speed
15 15 12 13 12 11 4 8 10 9 7 9 8 10 10 10 7 6 3 5 6 3 7 8 9 8 3 8 8 14 18 14 13 11 13 13 13 14 15 16 15 14 14 11 13 16 10 7 9 6 8 9 10 12 15 14 13 14 13 13 13 12 11
9 13 13 13 14 13 6 8 7 8 11 10 7 7 4 7 7 4 7 3 6 6 3 10 6 7 5 13 11 7 19 16 15 13 11 9 9 10 10 14 11 13 15 14 13 12 19 20 16 14 10 9 11 14 15 15 14 15 13 13 13 12 11
12 13 11 14 13 15 13 8 3 9 4 10 7 6 8 7 5 4 2 4 5 1 1 3 12 8 10 11 11 9 17 16 13 13 14 13 11 9 6 11 9 10 12 15 12 13 15 10 8 12 13 14 14 12 14 15 15 14 14 12 12 11 9
3 7 8 10 11 13 16 13 13 4 7 8 8 7 7 4 6 2 3 1 2 2 5 10 4 7 8 7 4 3 8 15 11 11 11 9 9 7 4 10 12 11 10 10 9 8 10 12 11 7 8 1 11 13 13 12 12 12 13 14 12 10 8
13 11 8 11 9 11 13 12 12 8 5 3 5 6 9 7 6 3 4 3 2 0 9 9 10 6 4 5 4 3 1 6 6 2 11 9 6 6 8 10 10 12 13 16 16 12 7 13 12 13 15 16 14 10 12 13 14 13 13 12 10 9 9
11 7 11 11 12 11 12 12 12 11 8 9 8 5 7 7 6 3 3 3 4 0 9 4 13 12 4 7 7 5 4 15 13 3 7 5 5 9 1 8 11 10 6 14 13 12 8 8 12 10 11 7 10 10 10 11 12 11 13 10 10 10 9
8 14 10 10 12 14 11 12 13 13 10 8 6 5 4 4 4 5 3 3 4 10 13 11 10 10 11 8 3 9 9 11 9 2 5 8 6 3 5 6 8 4 2 4 8 10 10 9 8 6 10 11 9 10 10 10 11 11 11 11 8 7 11
18 22 21 11 14 15 14 13 12 13 13 11 8 6 6 6 3 5 2 5 4 2 9 11 9 8 8 8 7 13 9 3 8 9 11 11 5 7 3 3 4 6 5 4 6 5 9 7 6 9 6 6 7 8 9 9 11 11 11 10 9 11 11
9 13 11 10 11 10 10 9 10 12 13 15 12 10 6 6 6 4 3 5 2 5 2 6 9 8 9 13 10 10 6 4 8 6 8 10 3 11 7 8 7 10 9 8 9 6 7 5 6 8 8 7 8 8 8 10 8 11 10 9 12 13 11
8 9 2 7 8 8 9 8 9 11 13 12 11 10 6 5 2 8 6 3 4 6 2 7 7 8 9 7 11 8 8 6 7 5 6 11 7 17 15 7 11 12 7 7 10 8 7 7 6 7 8 7 8 8 8 7 8 9 10 10 9 8 8
9 9 7 12 13 12 12 8 13 11 12 14 12 7 7 7 6 8 7 5 7 4 6 6 11 3 9 6 4 8 8 9 7 6 8 7 9 9 6 7 6 5 7 10 12 10 10 10 6 7 7 7 7 7 7 7 7 6 3 3 5 5 5
17 15 15 18 14 12 14 19 15 17 14 12 15 10 6 3 4 6 5 11 6 3 9 6 11 6 8 8 5 5 6 5 7 5 9 11 14 9 4 6 8 8 8 8 8 9 8 7 6 5 5 5 6 6 4 2 3 6 8 11 13 9 3
16 14 14 16 14 15 15 18 20 18 16 14 13 12 11 7 6 7 5 6 9 10 13 5 12 8 8 11 7 6 8 6 9 6 9 8 12 8 7 9 8 8 9 9 9 10 8 6 6 5 4 3 6 7 5 4 7 11 14 9 7 6 7
11 12 12 12 14 16 15 16 19 16 13 17 16 15 13 12 12 9 6 9 11 12 8 6 12 12 12 11 12 10 7 4 8 8 6 10 4 8 8 8 10 10 10 9 10 12 11 9 9 5 6 5 7 7 6 8 9 6 11 12 11 8 3
10 12 11 12 13 15 17 17 14 14 18 15 18 17 15 13 12 13 11 11 10 3 9 6 10 2 14 17 15 13 12 10 9 7 6 5 6 10 13 6 9 10 10 10 10 11 12 13 12 10 9 8 9 10 9 8 9 9 8 6 7 5 4
7 8 9 12 12 17 18 18 11 18 18 19 15 10 9 10 12 12 10 8 5 9 11 10 5 8 17 12 13 11 8 10 8 6 5 5 7 9 5 8 8 10 10 11 11 11 10 8 9 8 7 6 8 10 10 9 6 6 6 7 7 7 6
7 8 9 12 11 13 15 13 8 12 16 19 26 8 17 18 21 7 9 4 11 7 6 8 12 19 15 13 13 12 10 10 9 6 3 7 6 7 3 12 7 10 10 10 10 11 9 8 7 8 7 7 8 9 8 6 6 7 8 8 8 7 9
7 9 8 8 7 11 6 9 9 12 14 17 16 14 20 22 14 11 14 9 11 13 6 5 9 12 11 10 6 6 7 7 7 6 3 6 8 8 5 13 6 8 9 9 9 9 9 9 9 7 8 9 9 8 7 7 8 7 8 8 7 8 8
7 8 9 7 5 6 5 8 12 15 12 14 10 13 18 20 22 19 14 16 16 14 13 14 12 9 12 12 9 9 9 9 7 8 8 10 10 8 9 13 5 8 9 10 10 10 9 10 9 8 9 10 9 9 8 8 7 8 8 8 7 7 6
6 3 2 2 2 7 6 7 12 14 10 15 13 5 14 18 18 15 15 12 9 11 11 9 8 2 12 8 8 7 7 5 7 9 9 10 10 11 11 7 14 7 10 10 10 10 9 10 9 9 11 10 9 9 8 7 6 7 8 8 8 6 7
7 2 4 8 5 10 5 5 11 13 10 13 11 7 8 14 13 12 10 13 13 10 6 3 9 1 5 8 5 6 7 6 9 9 12 12 11 10 10 11 11 4 8 10 10 9 9 9 9 9 10 11 10 9 8 6 6 6 7 8 7 7 7
6 1 4 6 6 5 3 2 8 11 11 10 9 8 4 11 13 12 12 11 11 10 2 5 8 0 3 4 5 7 9 8 10 11 13 15 15 12 9 7 3 5 4 9 9 10 11 11 11 9 9 10 10 9 7 6 6 6 6 6 6 7 6
2 6 4 6 6 1 2 7 10 9 5 9 9 8 3 5 12 13 11 12 11 10 8 7 5 6 7 6 7 9 11 9 9 11 12 13 11 13 11 8 7 7 7 8 10 10 11 12 9 10 11 10 10 9 7 5 4 5 6 7 6 5 6
7 6 7 4 5 1 3 8 10 12 7 8 6 4 1 7 12 13 13 12 10 10 10 6 5 6 3 5 8 12 14 11 10 13 13 11 11 10 11 10 9 7 5 7 10 10 11 10 10 10 10 10 10 9 7 5 4 4 5 6 6 5 5
3 7 6 4 3 5 6 9 8 7 7 4 1 3 5 10 11 10 9 8 6 8 11 12 8 3 4 5 4 9 12 10 13 13 13 12 11 11 10 8 9 7 7 8 10 10 10 10 10 10 9 10 10 8 6 4 4 5 5 6 5 5 5
4 5 6 6 3 2 8 4 11 9 3 1 2 4 7 9 9 7 6 5 9 3 4 10 11 7 4 14 12 7 8 14 11 10 12 13 13 11 9 8 7 8 8 9 10 11 10 10 10 9 10 9 9 9 8 6 5 5 6 7 7 7 6
2 3 2 6 6 2 12 8 8 9 2 4 5 8 9 8 10 9 8 7 10 11 6 13 15 16 11 14 10 6 11 14 15 14 12 12 14 13 9 9 7 12 8 11 10 11 11 11 10 10 11 10 9 9 9 9 8 6 6 7 7 7 6
1 3 4 2 2 5 6 7 4 3 3 6 7 8 7 9 9 9 9 8 8 6 12 6 13 10 8 10 8 9 11 13 14 14 11 11 15 15 12 12 11 12 11 10 9 8 8 8 8 9 9 9 9 9 10 8 8 7 6 6 6 6 6
4 1 1 1 2 3 4 7 7 7 4 8 9 7 7 8 8 9 8 10 11 3 6 2 9 3 12 6 9 6 9 12 12 13 13 16 16 15 11 10 11 9 11 11 10 10 9 9 8 7 8 10 11 11 9 8 8 8 7 7 6 6 6
4 7 6 4 3 4 3 3 5 5 3 3 7 6 7 6 8 8 9 8 12 11 3 8 4 4 10 1 3 5 9 10 10 10 11 11 14 15 15 11 10 9 9 10 10 11 10 10 10 7 9 11 10 9 9 8 8 7 7 7 6 6 6
5 1 4 4 5 6 5 5 6 7 7 6 6 7 6 8 9 11 8 10 11 8 7 5 5 1 3 4 7 7 6 8 11 13 11 10 12 12 13 12 10 10 11 11 11 11 11 11 10 10 10 10 9 8 8 9 9 7 7 6 5 4 4
5 3 4 5 8 5 3 4 6 5 7 8 10 7 7 8 9 10 10 12 7 6 3 6 4 6 7 7 4 8 10 9 9 10 9 9 9 13 15 13 13 12 11 11 11 11 9 9 9 10 10 10 10 9 9 9 9 7 6 6 7 6 6
6 4 3 7 7 3 5 5 6 6 6 8 10 10 10 10 8 8 11 10 8 7 4 2 3 2 6 7 5 2 4 5 8 7 8 8 10 14 15 13 10 9 10 11 10 12 9 8 8 7 8 9 9 9 7 8 6 6 6 7 5 6 5
2 3 4 8 5 5 7 7 9 10 10 10 9 10 10 11 10 9 11 11 8 6 8 4 2 4 3 10 7 5 3 2 4 6 9 10 13 11 11 10 10 10 9 10 11 10 8 7 7 7 8 7 6 8 9 6 4 4 5 4 3 2 3
4 5 5 5 4 5 5 7 9 10 9 9 9 9 10 11 12 11 11 10 11 11 9 6 2 5 4 4 5 8 5 8 14 10 5 12 10 10 11 10 10 11 9 9 9 9 8 6 7 7 6 8 7 8 5 4 4 3 2 6 4 4 4
2 5 7 6 5 6 8 9 9 8 8 9 9 8 8 9 11 10 11 7 7 9 8 8 8 5 5 3 10 14 13 10 9 17 20 14 4 12 15 18 17 13 6 10 9 9 8 8 8 8 9 8 6 7 5 5 3 3 3 2 3 3 4
5 3 4 4 6 8 8 8 8 8 9 9 9 10 8 8 9 10 8 6 7 9 10 9 8 8 9 11 10 9 8 10 13 8 11 15 7 13 14 18 18 9 9 5 6 7 7 8 8 8 8 8 7 6 5 4 5 5 7 7 5 5 5
Wind_Direction
225 206 206 203 232 248 203 235 222 226 226 230 237 249 253 279 271 238 235 216 215 247 210 218 207 217 152 96 124 154 160 160 161 171 184 204 202 205 195 179 189 169 170 175 180 180 148 201 188 164 168 169 173 171 176 172 173 174 176 182 180 183 184
192 255 199 217 201 242 264 245 234 225 226 247 251 266 282 260 262 231 242 252 276 193 240 242 172 107 70 65 65 58 132 157 164 177 200 202 198 211 193 182 176 166 167 179 197 191 170 181 186 161 165 190 171 182 175 170 174 176 177 176 179 183 186
211 216 232 199 222 207 240 241 162 231 183 229 206 282 270 274 243 296 284 256 246 178 356 95 139 206 137 138 133 153 150 170 166 178 188 190 195 223 196 161 151 169 168 178 185 188 194 183 144 147 165 170 180 182 173 173 175 177 175 177 180 182 181
205 226 190 234 191 199 222 247 257 218 170 235 246 199 277 266 287 273 196 208 266 131 349 231 140 101 130 131 176 182 162 158 168 190 185 176 173 202 222 176 170 178 164 176 179 190 198 153 156 151 124 151 187 175 164 170 170 169 173 176 179 178 173
296 237 194 221 219 193 190 216 244 241 217 248 252 199 219 237 266 255 282 306 181 303 38 17 92 133 54 299 138 87 229 115 111 205 159 174 182 220 196 160 169 188 180 179 183 192 161 173 167 174 171 185 185 170 170 167 171 172 175 178 170 177 181
259 248 177 214 231 218 196 198 218 236 218 208 212 261 240 234 231 246 265 187 306 207 159 53 54 41 42 114 105 164 172 74 75 307 118 155 140 231 89 171 164 174 187 166 179 183 130 156 160 165 157 168 176 166 164 163 164 169 177 170 179 183 185
302 295 268 191 240 246 230 189 208 213 237 248 232 232 220 246 246 307 312 332 70 17 48 71 61 62 48 40 98 80 54 71 106 183 115 64 59 93 114 134 145 154 77 169 159 155 150 168 173 159 160 172 168 155 160 162 165 172 174 173 163 176 185
313 304 282 221 198 238 241 210 213 197 219 226 237 211 232 254 206 228 283 234 101 93 67 67 84 83 77 52 45 82 44 12 74 36 46 66 15 308 148 219 160 150 180 146 134 124 144 157 148 156 160 149 153 159 164 161 172 168 177 173 163 189 196
281 279 262 267 197 216 238 233 203 230 214 212 221 242 217 246 265 298 215 256 245 108 157 105 103 102 99 87 62 95 118 54 56 45 53 63 329 262 196 210 191 159 188 168 166 157 149 154 153 157 158 163 151 156 157 170 165 178 180 179 178 195 185
249 251 304 354 335 316 286 256 247 214 248 231 228 220 223 247 184 266 259 137 47 21 58 125 115 112 98 92 109 109 90 74 88 77 63 65 311 255 176 177 141 166 185 155 164 165 152 162 152 143 154 142 146 155 165 161 169 183 183 190 180 180 174
274 276 298 286 309 314 305 269 253 261 202 238 246 255 246 230 178 220 229 138 149 157 218 132 119 144 129 132 147 120 101 94 97 87 75 76 283 247 147 133 145 125 118 132 151 145 138 152 149 148 154 154 156 157 160 164 180 182 209 113 55 2 357
265 281 287 286 283 293 297 312 287 251 255 214 230 236 237 157 258 240 125 131 166 140 242 149 130 171 155 142 154 94 90 114 106 88 78 60 287 251 154 140 146 140 133 134 132 116 114 127 151 131 141 141 145 151 138 117 29 57 33 46 48 48 47
259 268 288 297 304 294 296 293 291 261 233 250 241 232 246 232 216 252 124 137 157 171 226 223 148 161 167 157 137 117 126 121 95 100 109 116 248 257 199 149 152 152 148 145 140 126 126 125 141 138 92 92 57 51 37 41 50 50 67 80 139 187 192
285 304 289 279 292 300 295 287 287 284 242 223 242 247 241 233 237 239 188 177 232 212 177 199 146 172 159 136 115 106 103 116 136 154 154 182 214 23 305 185 156 152 148 145 140 134 138 157 148 143 148 175 143 138 115 67 83 141 159 170 163 178 131
267 265 284 298 283 281 281 284 282 305 327 279 223 228 231 238 247 243 226 198 210 98 110 124 110 81 90 111 124 143 152 163 145 156 180 155 132 128 282 223 154 140 141 136 138 144 150 155 159 160 153 160 144 128 115 144 162 173 165 135 95 122 139
284 274 288 287 267 260 269 272 335 4 344 339 301 238 242 247 241 240 239 226 224 143 139 114 120 118 119 134 141 146 157 163 144 145 184 142 113 101 282 271 132 134 138 137 139 140 135 133 130 126 127 124 120 123 135 150 162 126 94 97 117 132 136
273 290 288 281 274 259 262 278 3 350 333 335 338 325 31 26 7 308 234 37 71 65 90 125 111 112 133 141 153 156 154 119 127 142 173 131 107 96 73 276 143 140 136 134 135 133 128 128 127 127 128 123 107 111 129 135 118 116 118 130 138 148 151
286 291 312 299 296 237 241 358 2 20 3 11 1 12 35 22 30 18 23 80 60 53 350 164 150 128 134 133 108 117 118 125 139 139 96 108 108 103 91 275 160 135 132 132 132 125 123 125 123 119 121 112 116 120 122 125 124 131 134 137 144 143 144
273 319 325 300 268 271 19 3 8 18 359 357 355 1 25 36 30 18 29 34 30 41 29 12 59 97 110 118 134 147 147 143 142 117 89 75 79 71 57 296 205 143 132 131 128 128 127 123 117 122 117 118 121 120 121 125 138 143 137 135 131 135 127
287 283 278 257 289 326 346 21 19 19 14 360 356 323 36 39 45 24 5 29 36 43 47 3 337 58 125 140 128 118 104 142 144 136 120 123 123 118 116 297 299 146 138 136 136 126 122 122 124 131 129 125 123 119 122 132 148 134 124 123 127 131 135
253 280 264 264 194 201 17 2 16 13 12 348 344 322 27 29 42 44 17 6 11 59 36 8 286 83 119 116 90 119 127 143 128 131 128 129 119 137 143 145 271 251 143 138 127 125 130 130 132 132 134 128 127 130 135 148 144 125 120 125 135 142 145
231 157 301 313 292 277 287 350 14 20 5 355 337 308 340 15 24 28 26 15 6 349 29 229 236 84 122 110 120 148 152 153 153 140 135 135 137 136 142 148 157 286 170 131 140 137 134 135 129 124 125 130 133 130 136 142 134 130 132 124 127 131 131
176 215 171 226 247 34 316 352 351 18 350 338 322 288 260 9 5 15 17 14 24 352 311 286 241 214 197 174 159 176 169 174 178 149 126 114 124 129 133 126 122 231 187 151 139 134 135 127 132 132 133 135 132 133 142 153 151 140 131 127 134 133 133
216 208 223 253 285 239 285 354 342 359 340 322 303 273 203 354 345 4 11 30 21 326 317 301 260 244 216 170 171 174 173 183 185 142 137 127 135 133 118 134 141 219 165 143 144 138 131 131 135 133 133 136 133 136 151 166 160 136 115 120 126 135 145
209 182 235 224 221 84 28 350 13 343 318 21 103 242 0 330 343 4 358 46 48 357 342 324 286 291 71 306 250 180 179 164 135 138 137 131 132 118 123 135 140 178 154 165 143 135 134 138 140 139 136 134 135 129 138 158 167 130 125 123 127 132 137
243 268 254 209 136 16 315 10 39 341 300 161 196 9 303 318 323 342 336 20 112 2 2 318 311 291 248 182 223 190 186 136 133 133 139 137 126 120 114 151 153 145 166 159 139 140 144 145 141 136 135 134 132 136 141 154 154 138 143 144 143 143 145
109 96 322 271 219 36 321 45 34 7 353 2 316 324 328 318 323 341 354 345 124 154 214 233 254 265 244 193 180 152 140 136 140 142 140 140 128 126 143 150 147 143 173 152 149 146 152 146 141 140 138 138 140 139 141 141 142 149 140 128 125 127 127
296 113 176 230 100 263 355 40 97 339 331 296 297 315 313 337 339 348 338 322 312 142 162 216 268 238 228 175 166 173 153 145 144 141 144 141 130 141 149 144 170 174 164 150 147 151 136 136 139 140 142 138 133 131 131 137 135 135 133 124 123 121 126
284 297 209 75 292 320 20 64 115 141 231 260 268 321 332 330 332 326 314 317 317 3 127 140 286 265 194 189 177 179 144 148 141 143 141 142 140 137 138 154 166 161 143 145 143 139 144 143 139 136 135 128 127 126 125 130 133 135 136 137 135 132 129
265 268 262 293 317 341 357 34 65 96 167 280 305 325 325 334 312 310 311 306 313 324 96 142 232 326 314 346 227 169 150 128 84 105 129 136 140 144 156 160 145 119 129 144 149 146 144 139 131 127 129 131 127 126 134 133 137 138 137 142 148 146 151
302 281 18 342 337 326 345 20 46 27 355 4 345 317 327 330 328 322 326 320 322 332 360 100 151 239 228 284 237 216 157 133 133 136 150 162 160 150 136 129 131 132 151 151 148 145 140 140 136 134 133 133 132 135 142 145 138 141 137 144 150 168 163
273 315 284 302 313 332 355 30 14 4 350 338 322 334 337 333 342 335 323 318 319 321 344 339 117 188 206 199 178 171 151 157 158 156 160 170 151 127 122 136 141 153 153 148 149 143 137 135 138 139 139 136 142 149 147 137 133 136 139 155 156 166 146
302 273 277 318 322 54 18 341 4 345 338 318 319 338 343 349 341 336 332 322 328 331 336 305 65 113 226 193 189 172 128 150 161 179 163 145 125 125 135 146 157 146 151 149 137 131 127 131 130 130 134 139 140 130 119 114 131 146 153 158 164 139 134
321 11 339 346 359 320 321 338 338 329 324 324 328 332 341 350 343 349 344 336 337 332 324 335 92 110 216 177 163 163 112 342 205 150 137 125 126 134 142 147 143 139 134 125 132 128 125 132 140 140 132 124 127 127 119 134 152 154 160 174 146 166 160
336 350 347 5 329 300 308 320 318 311 312 315 318 324 347 349 342 348 348 343 338 341 340 344 343 134 170 173 191 182 97 24 1 353 133 140 140 139 134 133 131 124 119 119 116 112 111 104 98 99 100 101 88 87 86 97 104 92 78 48 24 16 38
305 333 334 341 319 314 318 320 316 309 309 313 317 325 338 348 343 342 329 343 341 323 333 341 1 59 67 101 94 75 76 77 34 355 350 354 191 107 73 55 19 4 71 113 110 105 106 107 106 103 102 97 91 107 99 106 109 109 98 92 82 28 51
323 315 332 331 316 307 318 317 310 308 308 313 319 319 331 340 342 340 325 343 354 343 342 359 14 33 65 58 68 85 94 112 105 84 25 344 14 89 112 121 121 113 325 325 105 113 110 109 102 97 91 87 82 81 92 88 75 60 49 43 52 51 43